Tracking 30995 objects as of 5-Jul-2025
HD Live streaming from Space Station
objects crossing your sky now

CZ-4C DEB

Track CZ-4C DEB now!
10-day predictions


NORAD ID: 37567
Int'l Code: 2010-038C
Perigee: 537.1 km
Apogee: 659.8 km
Inclination: 97.7 °
Period: 96.5 minutes
Semi major axis: 6969 km
RCS: 0.0012 m2 (small)
Launch date: August 9, 2010
Source: People's Republic of China (PRC)
Launch site: Taiyaun Space Center, China (TSC)

Note: This is SATELLITE DEBRIS
Your satellite tracking list
EXPRESS AT-1
Track 1 satellite(s)




NASA's NSSDC Master Catalog

Two Line Element Set (TLE):
1 37567U 10038C   25185.79556810  .00007310  00000-0  67234-3 0  9998
2 37567  97.7268  16.4658 0088005 306.2221  67.9466 14.92127885790524
Source of the keplerian elements: AFSPC